Regional Weather Roundup
Issued by NWS Charleston, SC

Home | Current Version | Previous Version | Text Only | Print | Product List | Glossary On
Versions: 1 2 3 4 5 6 7 8 9 10 11 12 13 14 15 16 17 18 19 20 21 22 23 24 25 26 27 28 29 30 31 32 33 34 35 36 37 38 39 40 41 42 43 44 45 46 47 48 49 50
000
ASUS42 KCHS 011927
RWRCHS

REGIONAL WEATHER ROUNDUP
NATIONAL WEATHER SERVICE CHARLESTON SC
300 PM EDT WED JUL 01 2015

NOTE: "FAIR" INDICATES FEW OR NO CLOUDS BELOW 12,000 FEET WITH NO
SIGNIFICANT WEATHER AND/OR OBSTRUCTIONS TO VISIBILITY.

NOT ALL STATIONS ARE QUALITY CONTROLLED BY THE NATIONAL
WEATHER SERVICE. USE DATA WITH CAUTION...ESPECIALLY
DEWPOINT OBSERVATIONS.

SCZ027-030-031-034>040-042>050-012000-
...SOUTHEAST SOUTH CAROLINA...

CITY           SKY/WX    TMP DP  RH WIND       PRES   REMARKS
N CHARLESTON   PTSUNNY   86  70  58 W6G16     29.99F HX  90
WATERFRONT PAR   N/A     85  72  64 W7        29.98F HX  91
MOUNT PLEASANT LGT RAIN  88  70  55 SW10      29.99F HX  92
JOHNS ISLAND   FAIR      88  73  62 SW10      29.99F HX  96
PINOPOLIS      NOT AVBL
MONCKS CORNER  FAIR      86  70  58 W5        29.98F HX  90
SUMMERVILLE    FAIR      86  73  66 SW6       30.00F HX  93
BEAUFORT MCAS  PTSUNNY   87  72  60 SW14      30.01F HX  93
BEAUFORT ARPT  MOCLDY    88  73  62 SW9       30.00F HX  96
HILTON HEAD IS MOSUNNY   86  70  58 W12G17    30.03F HX  90
WALTERBORO     PTCLDY    86  70  58 W10       30.01S HX  90
ALLENDALE      MOCLDY    86  72  62 VRB7      30.00F HX  92

...SOUTHERN MIDLANDS AND PEE DEE...

CITY           SKY/WX    TMP DP  RH WIND       PRES   REMARKS
GEORGETOWN     NOT AVBL
KINGSTREE      NOT AVBL
ORANGEBURG     MOSUNNY   86  69  56 SW14      30.00F HX  90
BARNWELL       FAIR      88  72  58 SW12G17   30.01F HX  94
AIKEN          NOT AVBL
MANNING        MOCLDY    84  64  51 SW7       29.99S HAZE
COLUMBIA       CLOUDY    88  67  49 SW9       29.97F HX  91
SUMTER         PTSUNNY   85  70  60 SW9       29.97S
FLORENCE       MOSUNNY   85  69  58 VRB3      29.97F
MYRTLE BEACH   PTSUNNY   88  70  55 W9        30.00S HX  92
N MYRTLE BEACH PTSUNNY   83  73  72 S12       29.98S

$$

GAZ063-065-086>088-099>101-113>116-118-119-134>141-150-012000-
...SOUTHEAST GEORGIA...

CITY           SKY/WX    TMP DP  RH WIND       PRES   REMARKS
SAVANNAH ARPT  CLOUDY    88  70  55 W12G18    30.01F HX  93
HUNTER AAF     MOSUNNY   89  73  59 SW16      29.99F HX  97
FORT STEWART   MOSUNNY   90  71  53 W13G20    30.00F HX  95
STATESBORO     MOSUNNY   87  74  66 W8        30.03S HX  95
SYLVANIA       PTCLDY    89  73  60 W8        30.03F HX  96
CLAXTON        MOCLDY    86  72  62 W13G21    30.03S HX  92

...CSRA...CENTRAL AND FAR SOUTHEAST GEORGIA...

CITY           SKY/WX    TMP DP  RH WIND       PRES   REMARKS
THOMSON        MOSUNNY   87  73  63 W8        30.06F HX  94
AUGUSTA-BUSH   SUNNY     88  69  53 SW12      29.99F HX  92
AUGUSTA-DANIEL MOSUNNY   87  67  51 W9        30.02F HX  90
SWAINSBORO     FAIR      88  73  62 W10G17    30.04F HX  96
VIDALIA        PTSUNNY   88  70  55 SW10      30.04S HX  92
EASTMAN        FAIR      90  72  55 W9G16     30.05F HX  96
HAZLEHURST     FAIR      90  71  53 SW9G16    30.03F HX  96
ALMA           MOSUNNY   89  69  51 W13G23    30.05F HX  93
WAYCROSS       MOSUNNY   94  74  52 W12G21    30.05F HX 103
JESUP          FAIR      91  72  52 W10G22    30.03F HX  98
BAXLEY         FAIR      90  72  55 W10G21    30.04S HX  96
BRUNSWICK      SUNNY     91  70  49 W15G21    30.05S HX  97
SAINT SIMONS   MOSUNNY   91  69  48 W14G22    30.04F HX  96

$$

SCZ027-028-034-036>038-045-046-048>050-GAZ119-141-012000-
...LAKE AND SUPPLEMENTAL COASTAL OBSERVATIONS...

STATION/POSITION TIME  TEMP    WIND        PRES    WAVE   SWELL
                       AIR SEA DIR/SP/G            HT/PER HT/PER/DIR
                 (UTC) (F)     (DEG/KT/KT) (MB)    (FT/S) (FT/S/D)
UPR LAKE MARION  NOT AVBL
WINYAH BAY       1845   84     250/  7     1015.0S
LAKE MURRAY      1800   81     250/  7/ 12 1015.2F
ACE BASIN NERRS  1800   84     150/  3     1017.0S
FORT PULASKI     1900   87 85  260/  9/ 13 1016.8F
SAPELO ISLAND    1900   89     240/ 14     1017.0F

$$

ANZ835-935-AMZ111-154-330-350-352-354-370-450-454-472-012000-
...C-MAN AND BUOY OBSERVATIONS...

STATION/POSITION TIME  TEMP    WIND        PRES    WAVE   SWELL
                       AIR SEA DIR/SP/G            HT/PER HT/PER/DIR
                 (UTC) (F)     (DEG/KT/KT) (MB)    (FT/S) (FT/S/D)
BUOY 41004       1850   79 82  240/ 16/ 19 1016.1S   6/ 8   3/ 8
BUOY 41008       1850   81 80  210/ 10/ 12 1017.7F   3/ 8   2/130/ 8
FOLLY BEACH CMAN 1900   86     260/  7/ 10 1016.1F
CAPERS NEARSHORE 1808   81     230/ 16/ 21 1016.8F
FRIPP NEARSHORE  1800   83     250/ 14/ 16 1016.7F


STATION/POSITION TIME  TEMP    WIND        PRES    WAVE   SWELL
                       AIR SEA DIR/SP/G            HT/PER HT/PER/DIR
                 (UTC) (F)     (DEG/KT/KT) (MB)    (FT/S) (FT/S/D)
5E ST. MARYS GA  1821      78                N/A     2/ 9
FRYING PAN BUOY  1850   79 80  230/ 16/ 17 1016.0F   5/ 7   2/130/ 8
BUOY 41025       1850   80 83  240/ 19/ 21 1014.3F   5/ 8   3/150/ 8
CAPE LOOKOUT NC  1900   82     230/ 15/ 17 1014.3F
BUOY 41002       1850   81 80  220/ 19/ 21 1018.6F   6/ 7   2/190/11
BUOY 41010       1820   83 84  250/ 10/ 12 1020.8F
ST AUGUSTINE FL  1900   91 75  260/  9/ 12 1019.2F


$$


USA.gov is the U.S. government's official web portal to all federal, state and local government web resources and services.